Time,TemperatureF,DewpointF,PressureIn,WindDirection,WindDirectionDegrees,WindSpeedMPH,WindSpeedGustMPH,Humidity,HourlyPrecipIn,Conditions,Clouds,dailyrainin,SolarRadiationWatts/m^2,SoftwareType,DateUTC
2013-03-31 00:00:00,47.5,25.0,-100.00,SSE,149,4.5,6.3,41,0.00,,,-99.99,1.0,HOBO +U30 +Weather +,2013-03-31 06:00:00,
2013-03-31 00:05:00,47.0,25.1,-100.00,SSE,161,2.9,5.1,41,0.00,,,-99.99,1.0,HOBO +U30 +Weather +,2013-03-31 06:05:00,
2013-03-31 00:10:00,46.7,25.0,-100.00,SSE,168,2.2,4.0,42,0.00,,,-99.99,1.0,HOBO +U30 +Weather +,2013-03-31 06:10:00,
2013-03-31 00:15:00,46.4,25.1,-100.00,SSE,161,2.2,3.4,42,0.00,,,-99.99,1.0,HOBO +U30 +Weather +,2013-03-31 06:15:00,
2013-03-31 00:20:00,46.4,25.1,-100.00,SSE,156,4.0,5.1,42,0.00,,,-99.99,1.0,HOBO +U30 +Weather +,2013-03-31 06:20:00,
2013-03-31 00:25:00,45.9,25.1,-100.00,SSE,152,4.5,6.3,43,0.00,,,-99.99,1.0,HOBO +U30 +Weather +,2013-03-31 06:25:00,
2013-03-31 00:30:00,45.4,25.3,-100.00,South,180,5.6,7.8,45,0.00,,,-99.99,1.0,HOBO +U30 +Weather +,2013-03-31 06:30:00,
2013-03-31 00:35:00,44.8,25.4,-100.00,SSW,197,5.6,7.8,46,0.00,,,-99.99,1.0,HOBO +U30 +Weather +,2013-03-31 06:35:00,
2013-03-31 00:40:00,44.6,24.8,-100.00,SSW,202,4.0,7.8,45,0.00,,,-99.99,1.0,HOBO +U30 +Weather +,2013-03-31 06:40:00,
2013-03-31 00:45:00,44.0,23.8,-100.00,SSW,208,2.9,5.6,44,0.00,,,-99.99,1.0,HOBO +U30 +Weather +,2013-03-31 06:45:00,
2013-03-31 00:50:00,43.7,23.8,-100.00,SSW,202,2.9,5.6,45,0.00,,,-99.99,1.0,HOBO +U30 +Weather +,2013-03-31 06:50:00,
2013-03-31 00:55:00,43.4,23.9,-100.00,SSW,206,4.0,6.7,45,0.00,,,-99.99,1.0,HOBO +U30 +Weather +,2013-03-31 06:55:00,
2013-03-31 01:00:00,43.5,23.7,-100.00,SSW,205,3.4,5.6,45,0.00,,,-99.99,1.0,HOBO +U30 +Weather +,2013-03-31 07:00:00,
2013-03-31 01:05:00,43.4,23.7,-100.00,SSW,204,4.0,6.7,45,0.00,,,-99.99,1.0,HOBO +U30 +Weather +,2013-03-31 07:05:00,
2013-03-31 01:10:00,43.0,23.5,-100.00,SSW,208,2.2,5.1,45,0.00,,,-99.99,1.0,HOBO +U30 +Weather +,2013-03-31 07:10:00,
2013-03-31 01:15:00,42.7,23.4,-100.00,SW,215,4.0,6.7,45,0.00,,,-99.99,1.0,HOBO +U30 +Weather +,2013-03-31 07:15:00,
2013-03-31 01:20:00,42.4,23.3,-100.00,SSW,211,4.5,7.8,46,0.00,,,-99.99,1.0,HOBO +U30 +Weather +,2013-03-31 07:20:00,
2013-03-31 01:25:00,42.1,23.2,-100.00,SSW,211,3.4,7.4,46,0.00,,,-99.99,1.0,HOBO +U30 +Weather +,2013-03-31 07:25:00,
2013-03-31 01:30:00,42.0,23.0,-100.00,SSW,211,2.2,5.6,46,0.00,,,-99.99,1.0,HOBO +U30 +Weather +,2013-03-31 07:30:00,
2013-03-31 01:35:00,41.7,22.9,-100.00,SW,226,1.1,4.5,46,0.00,,,-99.99,1.0,HOBO +U30 +Weather +,2013-03-31 07:35:00,
2013-03-31 01:40:00,41.5,22.9,-100.00,SW,229,0.0,1.8,47,0.00,,,-99.99,1.0,HOBO +U30 +Weather +,2013-03-31 07:40:00,
2013-03-31 01:45:00,40.9,22.7,-100.00,SW,227,0.0,0.0,47,0.00,,,-99.99,1.0,HOBO +U30 +Weather +,2013-03-31 07:45:00,
2013-03-31 01:50:00,40.5,22.3,-100.00,SW,227,0.0,0.0,47,0.00,,,-99.99,1.0,HOBO +U30 +Weather +,2013-03-31 07:50:00,
2013-03-31 01:55:00,40.4,22.7,-100.00,SW,227,0.0,0.7,48,0.00,,,-99.99,1.0,HOBO +U30 +Weather +,2013-03-31 07:55:00,
2013-03-31 02:00:00,41.4,23.5,-100.00,SW,216,2.2,5.1,48,0.00,,,-99.99,1.0,HOBO +U30 +Weather +,2013-03-31 08:00:00,
2013-03-31 02:05:00,41.3,23.6,-100.00,SSW,202,3.4,5.6,49,0.00,,,-99.99,1.0,HOBO +U30 +Weather +,2013-03-31 08:05:00,
2013-03-31 02:10:00,41.0,23.6,-100.00,SSW,213,2.2,4.5,49,0.00,,,-99.99,1.0,HOBO +U30 +Weather +,2013-03-31 08:10:00,
2013-03-31 02:15:00,40.9,23.5,-100.00,SW,216,1.1,3.4,49,0.00,,,-99.99,1.0,HOBO +U30 +Weather +,2013-03-31 08:15:00,
2013-03-31 02:20:00,40.7,23.7,-100.00,SSW,212,2.9,4.5,50,0.00,,,-99.99,1.0,HOBO +U30 +Weather +,2013-03-31 08:20:00,
2013-03-31 02:25:00,40.2,23.6,-100.00,SSW,197,2.9,5.1,51,0.00,,,-99.99,1.0,HOBO +U30 +Weather +,2013-03-31 08:25:00,
2013-03-31 02:30:00,39.8,23.6,-100.00,SSW,202,3.4,5.6,51,0.00,,,-99.99,1.0,HOBO +U30 +Weather +,2013-03-31 08:30:00,
2013-03-31 02:35:00,39.5,23.6,-100.00,SSW,199,3.4,5.1,52,0.00,,,-99.99,1.0,HOBO +U30 +Weather +,2013-03-31 08:35:00,
2013-03-31 02:40:00,39.1,23.5,-100.00,SSW,195,3.4,5.1,53,0.00,,,-99.99,1.0,HOBO +U30 +Weather +,2013-03-31 08:40:00,
2013-03-31 02:45:00,38.9,23.4,-100.00,SSW,192,2.2,4.5,53,0.00,,,-99.99,1.0,HOBO +U30 +Weather +,2013-03-31 08:45:00,
2013-03-31 02:50:00,38.6,23.5,-100.00,South,188,2.9,4.5,54,0.00,,,-99.99,1.0,HOBO +U30 +Weather +,2013-03-31 08:50:00,
2013-03-31 02:55:00,38.1,23.5,-100.00,South,178,2.2,4.0,55,0.00,,,-99.99,1.0,HOBO +U30 +Weather +,2013-03-31 08:55:00,
2013-03-31 03:00:00,37.9,23.5,-100.00,South,183,2.2,3.4,55,0.00,,,-99.99,1.0,HOBO +U30 +Weather +,2013-03-31 09:00:00,
2013-03-31 03:05:00,37.6,23.3,-100.00,South,185,3.4,4.5,55,0.00,,,-99.99,1.0,HOBO +U30 +Weather +,2013-03-31 09:05:00,
2013-03-31 03:10:00,37.4,23.3,-100.00,South,191,3.4,5.6,56,0.00,,,-99.99,1.0,HOBO +U30 +Weather +,2013-03-31 09:10:00,
2013-03-31 03:15:00,37.1,23.1,-100.00,SSW,201,2.9,4.5,56,0.00,,,-99.99,1.0,HOBO +U30 +Weather +,2013-03-31 09:15:00,
2013-03-31 03:20:00,36.9,22.9,-100.00,SSW,199,3.4,5.1,56,0.00,,,-99.99,1.0,HOBO +U30 +Weather +,2013-03-31 09:20:00,
2013-03-31 03:25:00,36.6,22.6,-100.00,SSW,198,4.0,5.1,56,0.00,,,-99.99,1.0,HOBO +U30 +Weather +,2013-03-31 09:25:00,
2013-03-31 03:30:00,36.5,22.4,-100.00,SSW,195,2.9,5.1,56,0.00,,,-99.99,1.0,HOBO +U30 +Weather +,2013-03-31 09:30:00,
2013-03-31 03:35:00,36.9,23.2,-100.00,SW,216,2.2,4.5,57,0.00,,,-99.99,1.0,HOBO +U30 +Weather +,2013-03-31 09:35:00,
2013-03-31 03:40:00,37.3,22.9,-100.00,SW,229,1.8,5.1,55,0.00,,,-99.99,1.0,HOBO +U30 +Weather +,2013-03-31 09:40:00,
2013-03-31 03:45:00,37.3,23.1,-100.00,SW,222,0.0,2.2,56,0.00,,,-99.99,1.0,HOBO +U30 +Weather +,2013-03-31 09:45:00,
2013-03-31 03:50:00,37.3,23.3,-100.00,SW,220,1.8,4.0,56,0.00,,,-99.99,1.0,HOBO +U30 +Weather +,2013-03-31 09:50:00,
2013-03-31 03:55:00,37.3,23.3,-100.00,SW,223,0.7,2.9,56,0.00,,,-99.99,1.0,HOBO +U30 +Weather +,2013-03-31 09:55:00,
2013-03-31 04:00:00,37.1,23.5,-100.00,SW,223,1.8,5.1,57,0.00,,,-99.99,1.0,HOBO +U30 +Weather +,2013-03-31 10:00:00,
2013-03-31 04:05:00,36.7,23.5,-100.00,WSW,256,3.4,6.7,58,0.00,,,-99.99,1.0,HOBO +U30 +Weather +,2013-03-31 10:05:00,
2013-03-31 04:10:00,36.5,23.4,-100.00,WSW,256,4.5,7.4,58,0.00,,,-99.99,1.0,HOBO +U30 +Weather +,2013-03-31 10:10:00,
2013-03-31 04:15:00,36.3,22.9,-100.00,SW,223,4.5,6.7,57,0.00,,,-99.99,1.0,HOBO +U30 +Weather +,2013-03-31 10:15:00,
2013-03-31 04:20:00,36.2,22.3,-100.00,SW,234,4.0,8.9,56,0.00,,,-99.99,1.0,HOBO +U30 +Weather +,2013-03-31 10:20:00,
2013-03-31 04:25:00,36.2,22.0,-100.00,SW,219,3.4,5.6,56,0.00,,,-99.99,1.0,HOBO +U30 +Weather +,2013-03-31 10:25:00,
2013-03-31 04:30:00,35.4,21.7,-100.00,SSW,201,3.4,6.3,57,0.00,,,-99.99,1.0,HOBO +U30 +Weather +,2013-03-31 10:30:00,
2013-03-31 04:35:00,35.1,21.7,-100.00,SSW,205,2.9,6.3,57,0.00,,,-99.99,1.0,HOBO +U30 +Weather +,2013-03-31 10:35:00,
2013-03-31 04:40:00,35.0,21.6,-100.00,SSW,213,3.4,5.6,57,0.00,,,-99.99,1.0,HOBO +U30 +Weather +,2013-03-31 10:40:00,
2013-03-31 04:45:00,34.7,21.3,-100.00,SSW,212,4.5,7.4,57,0.00,,,-99.99,1.0,HOBO +U30 +Weather +,2013-03-31 10:45:00,
2013-03-31 04:50:00,34.8,21.3,-100.00,SW,223,4.5,7.4,57,0.00,,,-99.99,1.0,HOBO +U30 +Weather +,2013-03-31 10:50:00,
2013-03-31 04:55:00,34.6,21.2,-100.00,SSW,212,2.9,7.4,57,0.00,,,-99.99,1.0,HOBO +U30 +Weather +,2013-03-31 10:55:00,
2013-03-31 05:00:00,34.4,21.8,-100.00,SW,219,4.5,8.5,59,0.00,,,-99.99,1.0,HOBO +U30 +Weather +,2013-03-31 11:00:00,
2013-03-31 05:05:00,34.5,21.7,-100.00,SW,222,4.0,6.7,59,0.00,,,-99.99,1.0,HOBO +U30 +Weather +,2013-03-31 11:05:00,
2013-03-31 05:10:00,34.6,21.8,-100.00,SW,220,4.0,7.4,59,0.00,,,-99.99,1.0,HOBO +U30 +Weather +,2013-03-31 11:10:00,
2013-03-31 05:15:00,35.0,22.0,-100.00,WSW,239,4.5,7.4,58,0.00,,,-99.99,1.0,HOBO +U30 +Weather +,2013-03-31 11:15:00,
2013-03-31 05:20:00,35.1,22.2,-100.00,WSW,241,4.0,6.3,59,0.00,,,-99.99,1.0,HOBO +U30 +Weather +,2013-03-31 11:20:00,
2013-03-31 05:25:00,35.2,22.4,-100.00,SW,234,3.4,5.6,59,0.00,,,-99.99,1.0,HOBO +U30 +Weather +,2013-03-31 11:25:00,
2013-03-31 05:30:00,35.3,22.4,-100.00,SW,229,2.2,5.1,58,0.00,,,-99.99,1.0,HOBO +U30 +Weather +,2013-03-31 11:30:00,
2013-03-31 05:35:00,34.8,22.0,-100.00,SSW,213,2.9,7.4,59,0.00,,,-99.99,1.0,HOBO +U30 +Weather +,2013-03-31 11:35:00,
2013-03-31 05:40:00,34.6,21.9,-100.00,SW,218,1.8,5.1,59,0.00,,,-99.99,1.0,HOBO +U30 +Weather +,2013-03-31 11:40:00,
2013-03-31 05:45:00,34.3,21.9,-100.00,SSW,201,2.9,5.1,60,0.00,,,-99.99,1.0,HOBO +U30 +Weather +,2013-03-31 11:45:00,
2013-03-31 05:50:00,33.2,21.6,-100.00,South,184,4.0,5.1,62,0.00,,,-99.99,1.0,HOBO +U30 +Weather +,2013-03-31 11:50:00,
2013-03-31 05:55:00,32.7,21.6,-100.00,SSW,192,5.1,6.7,63,0.00,,,-99.99,1.0,HOBO +U30 +Weather +,2013-03-31 11:55:00,
2013-03-31 06:00:00,32.5,22.1,-100.00,SSW,194,5.1,7.8,65,0.00,,,-99.99,1.0,HOBO +U30 +Weather +,2013-03-31 12:00:00,
2013-03-31 06:05:00,32.5,22.4,-100.00,SSW,201,4.0,6.7,65,0.00,,,-99.99,1.0,HOBO +U30 +Weather +,2013-03-31 12:05:00,
2013-03-31 06:10:00,32.3,22.3,-100.00,SSW,192,3.4,5.6,66,0.00,,,-99.99,1.0,HOBO +U30 +Weather +,2013-03-31 12:10:00,
2013-03-31 06:15:00,32.3,22.5,-100.00,SSW,197,4.5,6.7,66,0.00,,,-99.99,1.0,HOBO +U30 +Weather +,2013-03-31 12:15:00,
2013-03-31 06:20:00,32.3,22.6,-100.00,SSW,199,3.4,6.3,67,0.00,,,-99.99,1.0,HOBO +U30 +Weather +,2013-03-31 12:20:00,
2013-03-31 06:25:00,32.4,22.7,-100.00,SSW,204,2.9,4.5,67,0.00,,,-99.99,1.0,HOBO +U30 +Weather +,2013-03-31 12:25:00,
2013-03-31 06:30:00,32.6,22.7,-100.00,SSW,204,4.0,8.9,66,0.00,,,-99.99,1.0,HOBO +U30 +Weather +,2013-03-31 12:30:00,
2013-03-31 06:35:00,32.7,22.7,-100.00,SSW,202,4.0,6.3,66,0.00,,,-99.99,1.0,HOBO +U30 +Weather +,2013-03-31 12:35:00,
2013-03-31 06:40:00,32.5,22.4,-100.00,SSW,198,4.5,7.4,66,0.00,,,-99.99,1.0,HOBO +U30 +Weather +,2013-03-31 12:40:00,
2013-03-31 06:45:00,32.1,22.4,-100.00,South,190,4.0,6.3,67,0.00,,,-99.99,2.0,HOBO +U30 +Weather +,2013-03-31 12:45:00,
2013-03-31 06:50:00,32.0,23.1,-100.00,South,188,4.5,6.3,69,0.00,,,-99.99,3.0,HOBO +U30 +Weather +,2013-03-31 12:50:00,
2013-03-31 06:55:00,31.8,22.8,-100.00,South,183,5.1,6.7,69,0.00,,,-99.99,6.0,HOBO +U30 +Weather +,2013-03-31 12:55:00,
2013-03-31 07:00:00,31.9,23.2,-100.00,South,183,5.1,7.8,69,0.00,,,-99.99,9.0,HOBO +U30 +Weather +,2013-03-31 13:00:00,
2013-03-31 07:05:00,32.0,23.3,-100.00,South,191,4.5,6.7,69,0.00,,,-99.99,19.0,HOBO +U30 +Weather +,2013-03-31 13:05:00,
2013-03-31 07:10:00,32.3,23.5,-100.00,South,183,4.5,7.4,69,0.00,,,-99.99,32.0,HOBO +U30 +Weather +,2013-03-31 13:10:00,
2013-03-31 07:15:00,32.7,23.7,-100.00,South,190,2.9,5.1,68,0.00,,,-99.99,46.0,HOBO +U30 +Weather +,2013-03-31 13:15:00,
2013-03-31 07:20:00,32.3,23.3,-100.00,South,183,5.1,8.5,69,0.00,,,-99.99,56.0,HOBO +U30 +Weather +,2013-03-31 13:20:00,
2013-03-31 07:25:00,32.2,23.3,-100.00,South,185,5.6,7.8,69,0.00,,,-99.99,71.0,HOBO +U30 +Weather +,2013-03-31 13:25:00,
2013-03-31 07:30:00,32.6,23.4,-100.00,South,184,5.1,8.5,68,0.00,,,-99.99,83.0,HOBO +U30 +Weather +,2013-03-31 13:30:00,
2013-03-31 07:35:00,32.6,23.3,-100.00,South,187,3.4,5.6,68,0.00,,,-99.99,94.0,HOBO +U30 +Weather +,2013-03-31 13:35:00,
2013-03-31 07:40:00,32.9,23.5,-100.00,South,185,4.0,6.3,68,0.00,,,-99.99,109.0,HOBO +U30 +Weather +,2013-03-31 13:40:00,
2013-03-31 07:45:00,32.7,23.1,-100.00,South,185,3.4,5.6,67,0.00,,,-99.99,107.0,HOBO +U30 +Weather +,2013-03-31 13:45:00,
2013-03-31 07:50:00,32.6,23.2,-100.00,South,187,4.0,6.3,67,0.00,,,-99.99,84.0,HOBO +U30 +Weather +,2013-03-31 13:50:00,
2013-03-31 07:55:00,33.0,23.2,-100.00,South,190,3.4,7.8,66,0.00,,,-99.99,88.0,HOBO +U30 +Weather +,2013-03-31 13:55:00,
2013-03-31 08:00:00,32.9,23.1,-100.00,SSW,198,3.4,6.3,66,0.00,,,-99.99,99.0,HOBO +U30 +Weather +,2013-03-31 14:00:00,
2013-03-31 08:05:00,33.4,23.1,-100.00,South,187,2.2,5.1,65,0.00,,,-99.99,113.0,HOBO +U30 +Weather +,2013-03-31 14:05:00,
2013-03-31 08:10:00,33.9,23.2,-100.00,South,181,2.2,5.1,64,0.00,,,-99.99,134.0,HOBO +U30 +Weather +,2013-03-31 14:10:00,
2013-03-31 08:15:00,34.2,23.2,-100.00,South,188,3.4,8.5,63,0.00,,,-99.99,147.0,HOBO +U30 +Weather +,2013-03-31 14:15:00,
2013-03-31 08:20:00,35.0,23.2,-100.00,SSW,201,3.4,6.7,61,0.00,,,-99.99,188.0,HOBO +U30 +Weather +,2013-03-31 14:20:00,
2013-03-31 08:25:00,35.5,22.9,-100.00,SSW,198,2.9,5.6,59,0.00,,,-99.99,179.0,HOBO +U30 +Weather +,2013-03-31 14:25:00,
2013-03-31 08:30:00,36.0,23.1,-100.00,South,191,3.4,6.3,59,0.00,,,-99.99,211.0,HOBO +U30 +Weather +,2013-03-31 14:30:00,
2013-03-31 08:35:00,37.4,23.7,-100.00,SSW,201,2.2,6.3,57,0.00,,,-99.99,237.0,HOBO +U30 +Weather +,2013-03-31 14:35:00,
2013-03-31 08:40:00,37.9,23.5,-100.00,SSW,205,3.4,6.7,55,0.00,,,-99.99,239.0,HOBO +U30 +Weather +,2013-03-31 14:40:00,
2013-03-31 08:45:00,39.4,24.0,-100.00,SW,225,0.7,3.4,53,0.00,,,-99.99,254.0,HOBO +U30 +Weather +,2013-03-31 14:45:00,
2013-03-31 08:50:00,39.4,23.6,-100.00,WSW,248,3.4,6.7,52,0.00,,,-99.99,274.0,HOBO +U30 +Weather +,2013-03-31 14:50:00,
2013-03-31 08:55:00,39.7,23.9,-100.00,WSW,257,4.5,8.5,52,0.00,,,-99.99,273.0,HOBO +U30 +Weather +,2013-03-31 14:55:00,
2013-03-31 09:00:00,40.0,24.0,-100.00,WSW,257,5.1,8.9,52,0.00,,,-99.99,313.0,HOBO +U30 +Weather +,2013-03-31 15:00:00,
2013-03-31 09:05:00,41.1,24.4,-100.00,WSW,241,4.5,8.5,51,0.00,,,-99.99,329.0,HOBO +U30 +Weather +,2013-03-31 15:05:00,
2013-03-31 09:10:00,41.7,24.8,-100.00,WSW,237,3.4,7.8,50,0.00,,,-99.99,342.0,HOBO +U30 +Weather +,2013-03-31 15:10:00,
2013-03-31 09:15:00,42.6,25.1,-100.00,WSW,239,4.0,6.3,49,0.00,,,-99.99,342.0,HOBO +U30 +Weather +,2013-03-31 15:15:00,
2013-03-31 09:20:00,43.5,25.7,-100.00,SSW,204,6.3,10.1,49,0.00,,,-99.99,373.0,HOBO +U30 +Weather +,2013-03-31 15:20:00,
2013-03-31 09:25:00,44.7,25.9,-100.00,WSW,237,4.0,8.9,47,0.00,,,-99.99,378.0,HOBO +U30 +Weather +,2013-03-31 15:25:00,
2013-03-31 09:30:00,45.2,26.1,-100.00,SW,222,4.0,7.8,46,0.00,,,-99.99,377.0,HOBO +U30 +Weather +,2013-03-31 15:30:00,
2013-03-31 09:35:00,46.2,26.7,-100.00,South,190,9.6,13.0,46,0.00,,,-99.99,422.0,HOBO +U30 +Weather +,2013-03-31 15:35:00,
2013-03-31 09:40:00,48.1,27.1,-100.00,South,188,7.4,13.0,43,0.00,,,-99.99,437.0,HOBO +U30 +Weather +,2013-03-31 15:40:00,
2013-03-31 09:45:00,49.5,27.1,-100.00,SSW,205,6.3,13.0,41,0.00,,,-99.99,417.0,HOBO +U30 +Weather +,2013-03-31 15:45:00,
2013-03-31 09:50:00,50.1,26.9,-100.00,WSW,243,5.1,10.7,40,0.00,,,-99.99,441.0,HOBO +U30 +Weather +,2013-03-31 15:50:00,
2013-03-31 09:55:00,51.5,26.6,-100.00,WSW,248,2.9,11.2,37,0.00,,,-99.99,524.0,HOBO +U30 +Weather +,2013-03-31 15:55:00,
2013-03-31 10:00:00,51.6,26.5,-100.00,SW,219,7.4,11.2,37,0.00,,,-99.99,363.0,HOBO +U30 +Weather +,2013-03-31 16:00:00,
2013-03-31 10:05:00,51.9,26.5,-100.00,WSW,241,7.4,14.1,37,0.00,,,-99.99,447.0,HOBO +U30 +Weather +,2013-03-31 16:05:00,
2013-03-31 10:10:00,52.7,27.0,-100.00,SSW,213,8.5,14.1,36,0.00,,,-99.99,349.0,HOBO +U30 +Weather +,2013-03-31 16:10:00,
2013-03-31 10:15:00,53.3,27.0,-100.00,SSW,201,6.7,11.2,36,0.00,,,-99.99,404.0,HOBO +U30 +Weather +,2013-03-31 16:15:00,
2013-03-31 10:20:00,53.8,26.6,-100.00,SW,219,5.1,12.3,34,0.00,,,-99.99,373.0,HOBO +U30 +Weather +,2013-03-31 16:20:00,
2013-03-31 10:25:00,55.4,26.9,-100.00,WSW,237,4.5,11.2,33,0.00,,,-99.99,311.0,HOBO +U30 +Weather +,2013-03-31 16:25:00,
2013-03-31 10:30:00,56.8,26.1,-100.00,WNW,296,11.9,25.3,30,0.00,,,-99.99,269.0,HOBO +U30 +Weather +,2013-03-31 16:30:00,
2013-03-31 10:35:00,56.9,26.2,-100.00,WNW,298,14.5,23.7,30,0.00,,,-99.99,261.0,HOBO +U30 +Weather +,2013-03-31 16:35:00,
2013-03-31 10:40:00,57.0,26.0,-100.00,NW,306,12.3,23.7,30,0.00,,,-99.99,234.0,HOBO +U30 +Weather +,2013-03-31 16:40:00,
2013-03-31 10:45:00,57.3,26.2,-100.00,NW,309,11.2,21.5,30,0.00,,,-99.99,213.0,HOBO +U30 +Weather +,2013-03-31 16:45:00,
2013-03-31 10:50:00,57.4,25.8,-100.00,NW,316,11.9,23.7,29,0.00,,,-99.99,193.0,HOBO +U30 +Weather +,2013-03-31 16:50:00,
2013-03-31 10:55:00,57.2,25.7,-100.00,NW,305,15.2,25.3,29,0.00,,,-99.99,191.0,HOBO +U30 +Weather +,2013-03-31 16:55:00,
2013-03-31 11:00:00,57.1,25.6,-100.00,WNW,300,15.9,27.1,29,0.00,,,-99.99,199.0,HOBO +U30 +Weather +,2013-03-31 17:00:00,
2013-03-31 11:05:00,57.3,25.4,-100.00,WNW,299,14.1,27.1,29,0.00,,,-99.99,198.0,HOBO +U30 +Weather +,2013-03-31 17:05:00,
2013-03-31 11:10:00,57.6,25.2,-100.00,NW,306,14.1,24.2,28,0.00,,,-99.99,199.0,HOBO +U30 +Weather +,2013-03-31 17:10:00,
2013-03-31 11:15:00,57.9,25.4,-100.00,NW,310,11.2,20.8,28,0.00,,,-99.99,206.0,HOBO +U30 +Weather +,2013-03-31 17:15:00,
2013-03-31 11:20:00,58.0,25.4,-100.00,WNW,299,15.2,24.2,28,0.00,,,-99.99,221.0,HOBO +U30 +Weather +,2013-03-31 17:20:00,
2013-03-31 11:25:00,58.2,25.5,-100.00,WNW,302,13.4,22.6,28,0.00,,,-99.99,229.0,HOBO +U30 +Weather +,2013-03-31 17:25:00,
2013-03-31 11:30:00,58.2,25.7,-100.00,WNW,291,13.0,21.5,28,0.00,,,-99.99,284.0,HOBO +U30 +Weather +,2013-03-31 17:30:00,
2013-03-31 11:35:00,58.6,25.6,-100.00,WNW,303,13.4,24.8,27,0.00,,,-99.99,253.0,HOBO +U30 +Weather +,2013-03-31 17:35:00,
2013-03-31 11:40:00,58.5,25.7,-100.00,NW,305,11.9,27.1,28,0.00,,,-99.99,306.0,HOBO +U30 +Weather +,2013-03-31 17:40:00,
2013-03-31 11:45:00,60.5,25.7,-100.00,NW,310,7.8,18.6,26,0.00,,,-99.99,322.0,HOBO +U30 +Weather +,2013-03-31 17:45:00,
2013-03-31 11:50:00,59.1,24.7,-100.00,NW,320,13.0,22.6,26,0.00,,,-99.99,317.0,HOBO +U30 +Weather +,2013-03-31 17:50:00,
2013-03-31 11:55:00,59.5,25.1,-100.00,NNW,333,12.3,20.4,26,0.00,,,-99.99,456.0,HOBO +U30 +Weather +,2013-03-31 17:55:00,
2013-03-31 12:00:00,59.4,25.2,-100.00,NNW,330,13.0,24.8,26,0.00,,,-99.99,289.0,HOBO +U30 +Weather +,2013-03-31 18:00:00,
2013-03-31 12:05:00,59.1,24.9,-100.00,NW,307,11.9,21.5,26,0.00,,,-99.99,242.0,HOBO +U30 +Weather +,2013-03-31 18:05:00,
2013-03-31 12:10:00,59.4,25.5,-100.00,NW,313,7.8,17.4,27,0.00,,,-99.99,274.0,HOBO +U30 +Weather +,2013-03-31 18:10:00,
2013-03-31 12:15:00,59.4,25.5,-100.00,NW,321,10.1,17.0,27,0.00,,,-99.99,222.0,HOBO +U30 +Weather +,2013-03-31 18:15:00,
2013-03-31 12:20:00,59.4,25.6,-100.00,NNW,338,11.2,19.7,27,0.00,,,-99.99,206.0,HOBO +U30 +Weather +,2013-03-31 18:20:00,
2013-03-31 12:25:00,59.3,24.9,-100.00,NNW,329,11.9,19.2,26,0.00,,,-99.99,184.0,HOBO +U30 +Weather +,2013-03-31 18:25:00,
2013-03-31 12:30:00,58.9,23.9,-100.00,NW,320,11.2,20.4,25,0.00,,,-99.99,169.0,HOBO +U30 +Weather +,2013-03-31 18:30:00,
2013-03-31 12:35:00,58.9,24.1,-100.00,North,351,11.9,19.2,26,0.00,,,-99.99,146.0,HOBO +U30 +Weather +,2013-03-31 18:35:00,
2013-03-31 12:40:00,58.9,24.1,-100.00,North,3,11.2,19.2,26,0.00,,,-99.99,143.0,HOBO +U30 +Weather +,2013-03-31 18:40:00,
2013-03-31 12:45:00,58.8,24.1,-100.00,NNW,338,10.1,20.8,26,0.00,,,-99.99,147.0,HOBO +U30 +Weather +,2013-03-31 18:45:00,
2013-03-31 12:50:00,58.9,24.0,-100.00,NW,326,10.7,20.4,25,0.00,,,-99.99,141.0,HOBO +U30 +Weather +,2013-03-31 18:50:00,
2013-03-31 12:55:00,58.4,23.7,-100.00,North,1,11.2,19.2,26,0.00,,,-99.99,143.0,HOBO +U30 +Weather +,2013-03-31 18:55:00,
2013-03-31 13:00:00,58.6,23.8,-100.00,NNW,334,10.1,15.2,26,0.00,,,-99.99,152.0,HOBO +U30 +Weather +,2013-03-31 19:00:00,
2013-03-31 13:05:00,58.5,23.7,-100.00,NNW,347,14.5,20.8,25,0.00,,,-99.99,171.0,HOBO +U30 +Weather +,2013-03-31 19:05:00,
2013-03-31 13:10:00,58.5,23.7,-100.00,NNW,347,11.9,18.1,25,0.00,,,-99.99,176.0,HOBO +U30 +Weather +,2013-03-31 19:10:00,
2013-03-31 13:15:00,58.9,23.9,-100.00,NNW,341,10.7,18.1,25,0.00,,,-99.99,197.0,HOBO +U30 +Weather +,2013-03-31 19:15:00,
2013-03-31 13:20:00,58.5,23.7,-100.00,NNW,345,13.0,20.4,25,0.00,,,-99.99,201.0,HOBO +U30 +Weather +,2013-03-31 19:20:00,
2013-03-31 13:25:00,58.4,24.4,-100.00,North,354,14.5,21.5,26,0.00,,,-99.99,194.0,HOBO +U30 +Weather +,2013-03-31 19:25:00,
2013-03-31 13:30:00,58.2,25.1,-100.00,North,10,14.1,24.2,27,0.00,,,-99.99,212.0,HOBO +U30 +Weather +,2013-03-31 19:30:00,
2013-03-31 13:35:00,57.4,25.4,-100.00,NNE,17,15.2,21.5,29,0.00,,,-99.99,259.0,HOBO +U30 +Weather +,2013-03-31 19:35:00,
2013-03-31 13:40:00,57.9,25.6,-100.00,NNE,24,14.1,20.8,28,0.00,,,-99.99,256.0,HOBO +U30 +Weather +,2013-03-31 19:40:00,
2013-03-31 13:45:00,57.8,25.2,-100.00,NNE,15,15.9,25.9,28,0.00,,,-99.99,252.0,HOBO +U30 +Weather +,2013-03-31 19:45:00,
2013-03-31 13:50:00,58.1,25.2,-100.00,NNE,14,14.1,20.8,28,0.00,,,-99.99,277.0,HOBO +U30 +Weather +,2013-03-31 19:50:00,
2013-03-31 13:55:00,58.0,25.2,-100.00,NNE,13,16.3,23.0,28,0.00,,,-99.99,312.0,HOBO +U30 +Weather +,2013-03-31 19:55:00,
2013-03-31 14:00:00,58.0,25.3,-100.00,NNE,20,13.4,19.7,28,0.00,,,-99.99,281.0,HOBO +U30 +Weather +,2013-03-31 20:00:00,
2013-03-31 14:05:00,58.3,25.5,-100.00,NNE,15,13.4,25.9,28,0.00,,,-99.99,343.0,HOBO +U30 +Weather +,2013-03-31 20:05:00,
2013-03-31 14:10:00,58.7,25.6,-100.00,North,10,10.1,15.2,27,0.00,,,-99.99,329.0,HOBO +U30 +Weather +,2013-03-31 20:10:00,
2013-03-31 14:15:00,58.5,25.1,-100.00,North,351,11.2,18.6,27,0.00,,,-99.99,253.0,HOBO +U30 +Weather +,2013-03-31 20:15:00,
2013-03-31 14:20:00,59.2,25.4,-100.00,North,352,12.3,17.4,27,0.00,,,-99.99,862.0,HOBO +U30 +Weather +,2013-03-31 20:20:00,
2013-03-31 14:25:00,59.2,25.4,-100.00,North,352,8.5,15.2,27,0.00,,,-99.99,381.0,HOBO +U30 +Weather +,2013-03-31 20:25:00,
2013-03-31 14:30:00,58.2,26.7,-100.00,North,0,13.4,21.9,29,0.00,,,-99.99,372.0,HOBO +U30 +Weather +,2013-03-31 20:30:00,
2013-03-31 14:35:00,57.9,27.1,-100.00,NNE,15,16.3,25.3,30,0.00,,,-99.99,588.0,HOBO +U30 +Weather +,2013-03-31 20:35:00,
2013-03-31 14:40:00,57.9,27.7,-100.00,NNE,28,17.0,24.8,31,0.00,,,-99.99,697.0,HOBO +U30 +Weather +,2013-03-31 20:40:00,
2013-03-31 14:45:00,57.9,28.0,-100.00,NNE,31,15.2,24.8,31,0.00,,,-99.99,766.0,HOBO +U30 +Weather +,2013-03-31 20:45:00,
2013-03-31 14:50:00,57.7,27.6,-100.00,NNE,24,17.0,23.7,31,0.00,,,-99.99,294.0,HOBO +U30 +Weather +,2013-03-31 20:50:00,
2013-03-31 14:55:00,56.2,27.0,-100.00,NNE,28,19.2,30.4,32,0.00,,,-99.99,264.0,HOBO +U30 +Weather +,2013-03-31 20:55:00,
2013-03-31 15:00:00,57.4,27.0,-100.00,NNE,20,17.0,23.7,31,0.00,,,-99.99,637.0,HOBO +U30 +Weather +,2013-03-31 21:00:00,
2013-03-31 15:05:00,57.0,27.0,-100.00,NNE,25,19.2,29.3,31,0.00,,,-99.99,678.0,HOBO +U30 +Weather +,2013-03-31 21:05:00,
2013-03-31 15:10:00,57.8,27.4,-100.00,NNE,17,15.2,23.0,31,0.00,,,-99.99,707.0,HOBO +U30 +Weather +,2013-03-31 21:10:00,
2013-03-31 15:15:00,56.9,27.6,-100.00,NNE,29,16.3,22.6,32,0.00,,,-99.99,736.0,HOBO +U30 +Weather +,2013-03-31 21:15:00,
2013-03-31 15:20:00,57.7,28.1,-100.00,NNE,25,14.1,23.7,32,0.00,,,-99.99,731.0,HOBO +U30 +Weather +,2013-03-31 21:20:00,
2013-03-31 15:25:00,57.3,28.2,-100.00,NE,42,15.2,25.9,32,0.00,,,-99.99,743.0,HOBO +U30 +Weather +,2013-03-31 21:25:00,
2013-03-31 15:30:00,57.5,27.6,-100.00,NNE,28,13.0,21.5,31,0.00,,,-99.99,344.0,HOBO +U30 +Weather +,2013-03-31 21:30:00,
2013-03-31 15:35:00,56.2,26.5,-100.00,NNE,18,17.4,28.2,31,0.00,,,-99.99,156.0,HOBO +U30 +Weather +,2013-03-31 21:35:00,
2013-03-31 15:40:00,55.9,26.3,-100.00,NNE,18,17.4,27.1,31,0.00,,,-99.99,139.0,HOBO +U30 +Weather +,2013-03-31 21:40:00,
2013-03-31 15:45:00,55.8,26.1,-100.00,NNE,15,17.0,25.3,31,0.00,,,-99.99,192.0,HOBO +U30 +Weather +,2013-03-31 21:45:00,
2013-03-31 15:50:00,55.9,26.0,-100.00,North,7,14.5,23.7,31,0.00,,,-99.99,231.0,HOBO +U30 +Weather +,2013-03-31 21:50:00,
2013-03-31 15:55:00,56.6,26.0,-100.00,North,3,12.3,21.5,30,0.00,,,-99.99,434.0,HOBO +U30 +Weather +,2013-03-31 21:55:00,
2013-03-31 16:00:00,56.9,26.3,-100.00,NNE,18,14.5,22.6,30,0.00,,,-99.99,558.0,HOBO +U30 +Weather +,2013-03-31 22:00:00,
2013-03-31 16:05:00,56.4,26.6,-100.00,NNE,27,15.2,21.9,31,0.00,,,-99.99,536.0,HOBO +U30 +Weather +,2013-03-31 22:05:00,
2013-03-31 16:10:00,56.5,25.9,-100.00,NNE,17,16.3,24.8,30,0.00,,,-99.99,553.0,HOBO +U30 +Weather +,2013-03-31 22:10:00,
2013-03-31 16:15:00,56.7,25.7,-100.00,NNE,22,15.2,24.2,30,0.00,,,-99.99,567.0,HOBO +U30 +Weather +,2013-03-31 22:15:00,
2013-03-31 16:20:00,56.6,25.8,-100.00,NNE,29,15.9,24.8,30,0.00,,,-99.99,602.0,HOBO +U30 +Weather +,2013-03-31 22:20:00,
2013-03-31 16:25:00,56.5,25.2,-100.00,NNE,25,12.3,19.7,29,0.00,,,-99.99,506.0,HOBO +U30 +Weather +,2013-03-31 22:25:00,
2013-03-31 16:30:00,56.3,25.0,-100.00,NE,34,13.4,21.9,29,0.00,,,-99.99,479.0,HOBO +U30 +Weather +,2013-03-31 22:30:00,
2013-03-31 16:35:00,55.6,24.9,-100.00,NNE,22,15.9,21.9,30,0.00,,,-99.99,366.0,HOBO +U30 +Weather +,2013-03-31 22:35:00,
2013-03-31 16:40:00,55.5,24.9,-100.00,NNE,31,16.3,21.9,30,0.00,,,-99.99,471.0,HOBO +U30 +Weather +,2013-03-31 22:40:00,
2013-03-31 16:45:00,55.9,25.0,-100.00,NE,41,13.4,24.2,30,0.00,,,-99.99,383.0,HOBO +U30 +Weather +,2013-03-31 22:45:00,
2013-03-31 16:50:00,55.4,24.8,-100.00,NE,48,15.9,25.3,30,0.00,,,-99.99,448.0,HOBO +U30 +Weather +,2013-03-31 22:50:00,
2013-03-31 16:55:00,55.7,24.7,-100.00,NE,41,13.0,19.2,29,0.00,,,-99.99,453.0,HOBO +U30 +Weather +,2013-03-31 22:55:00,
2013-03-31 17:00:00,55.7,24.7,-100.00,NE,53,15.9,23.0,29,0.00,,,-99.99,431.0,HOBO +U30 +Weather +,2013-03-31 23:00:00,
2013-03-31 17:05:00,55.3,24.3,-100.00,NE,39,15.9,22.6,29,0.00,,,-99.99,413.0,HOBO +U30 +Weather +,2013-03-31 23:05:00,
2013-03-31 17:10:00,55.2,24.6,-100.00,NE,38,16.3,21.9,30,0.00,,,-99.99,388.0,HOBO +U30 +Weather +,2013-03-31 23:10:00,
2013-03-31 17:15:00,55.1,24.7,-100.00,NE,42,14.5,21.5,30,0.00,,,-99.99,384.0,HOBO +U30 +Weather +,2013-03-31 23:15:00,
2013-03-31 17:20:00,55.0,24.8,-100.00,NE,42,15.9,25.9,30,0.00,,,-99.99,383.0,HOBO +U30 +Weather +,2013-03-31 23:20:00,
2013-03-31 17:25:00,55.6,24.8,-100.00,NE,34,11.9,18.1,30,0.00,,,-99.99,364.0,HOBO +U30 +Weather +,2013-03-31 23:25:00,
2013-03-31 17:30:00,55.7,24.6,-100.00,NNE,25,14.1,19.2,29,0.00,,,-99.99,353.0,HOBO +U30 +Weather +,2013-03-31 23:30:00,
2013-03-31 17:35:00,54.7,24.3,-100.00,NNE,32,11.9,18.6,30,0.00,,,-99.99,61.0,HOBO +U30 +Weather +,2013-03-31 23:35:00,
2013-03-31 17:40:00,54.5,24.2,-100.00,NNE,14,12.3,17.4,30,0.00,,,-99.99,66.0,HOBO +U30 +Weather +,2013-03-31 23:40:00,
2013-03-31 17:45:00,54.4,23.8,-100.00,NE,35,11.2,17.4,30,0.00,,,-99.99,74.0,HOBO +U30 +Weather +,2013-03-31 23:45:00,
2013-03-31 17:50:00,54.2,23.1,-100.00,NE,41,12.3,18.1,29,0.00,,,-99.99,77.0,HOBO +U30 +Weather +,2013-03-31 23:50:00,
2013-03-31 17:55:00,53.9,22.6,-100.00,NE,41,13.4,18.6,29,0.00,,,-99.99,102.0,HOBO +U30 +Weather +,2013-03-31 23:55:00,
2013-03-31 18:00:00,54.7,22.5,-100.00,NE,44,13.4,18.6,28,0.00,,,-99.99,276.0,HOBO +U30 +Weather +,2013-04-01 00:00:00,
2013-03-31 18:05:00,54.4,22.5,-100.00,ENE,62,14.5,20.4,28,0.00,,,-99.99,178.0,HOBO +U30 +Weather +,2013-04-01 00:05:00,
2013-03-31 18:10:00,53.8,22.5,-100.00,NE,34,14.5,19.2,29,0.00,,,-99.99,64.0,HOBO +U30 +Weather +,2013-04-01 00:10:00,
2013-03-31 18:15:00,53.6,22.8,-100.00,NNE,31,14.5,20.8,29,0.00,,,-99.99,167.0,HOBO +U30 +Weather +,2013-04-01 00:15:00,
2013-03-31 18:20:00,53.2,23.2,-100.00,NE,39,13.0,17.0,30,0.00,,,-99.99,91.0,HOBO +U30 +Weather +,2013-04-01 00:20:00,
2013-03-31 18:25:00,53.1,22.7,-100.00,NE,41,13.0,18.6,30,0.00,,,-99.99,92.0,HOBO +U30 +Weather +,2013-04-01 00:25:00,
2013-03-31 18:30:00,53.0,22.5,-100.00,NE,42,13.4,19.7,30,0.00,,,-99.99,83.0,HOBO +U30 +Weather +,2013-04-01 00:30:00,
2013-03-31 18:35:00,52.7,22.4,-100.00,NE,35,11.9,17.4,30,0.00,,,-99.99,77.0,HOBO +U30 +Weather +,2013-04-01 00:35:00,
2013-03-31 18:40:00,52.6,22.0,-100.00,NE,44,12.3,19.7,29,0.00,,,-99.99,63.0,HOBO +U30 +Weather +,2013-04-01 00:40:00,
2013-03-31 18:45:00,52.2,21.9,-100.00,NE,55,14.1,19.2,30,0.00,,,-99.99,53.0,HOBO +U30 +Weather +,2013-04-01 00:45:00,
2013-03-31 18:50:00,52.2,22.0,-100.00,NE,52,12.3,17.0,30,0.00,,,-99.99,44.0,HOBO +U30 +Weather +,2013-04-01 00:50:00,
2013-03-31 18:55:00,52.3,22.1,-100.00,NE,45,10.1,15.2,30,0.00,,,-99.99,37.0,HOBO +U30 +Weather +,2013-04-01 00:55:00,
2013-03-31 19:00:00,52.1,22.1,-100.00,NE,37,10.7,15.9,30,0.00,,,-99.99,37.0,HOBO +U30 +Weather +,2013-04-01 01:00:00,
2013-03-31 19:05:00,51.9,21.9,-100.00,NE,42,11.2,16.3,30,0.00,,,-99.99,39.0,HOBO +U30 +Weather +,2013-04-01 01:05:00,
2013-03-31 19:10:00,51.9,21.7,-100.00,NE,42,11.9,15.2,30,0.00,,,-99.99,48.0,HOBO +U30 +Weather +,2013-04-01 01:10:00,
2013-03-31 19:15:00,51.5,21.7,-100.00,NE,49,11.9,17.4,30,0.00,,,-99.99,26.0,HOBO +U30 +Weather +,2013-04-01 01:15:00,
2013-03-31 19:20:00,51.2,21.3,-100.00,ENE,58,13.4,18.6,30,0.00,,,-99.99,32.0,HOBO +U30 +Weather +,2013-04-01 01:20:00,
2013-03-31 19:25:00,50.8,21.3,-100.00,ENE,60,15.9,20.4,30,0.00,,,-99.99,22.0,HOBO +U30 +Weather +,2013-04-01 01:25:00,
2013-03-31 19:30:00,50.5,21.3,-100.00,ENE,60,13.0,16.3,31,0.00,,,-99.99,12.0,HOBO +U30 +Weather +,2013-04-01 01:30:00,
2013-03-31 19:35:00,49.8,21.3,-100.00,ENE,63,11.9,16.3,32,0.00,,,-99.99,6.0,HOBO +U30 +Weather +,2013-04-01 01:35:00,
2013-03-31 19:40:00,49.5,21.4,-100.00,ENE,62,11.9,16.3,32,0.00,,,-99.99,3.0,HOBO +U30 +Weather +,2013-04-01 01:40:00,
2013-03-31 19:45:00,49.2,21.5,-100.00,ENE,65,11.9,14.5,33,0.00,,,-99.99,2.0,HOBO +U30 +Weather +,2013-04-01 01:45:00,
2013-03-31 19:50:00,49.0,21.3,-100.00,ENE,65,12.3,15.9,33,0.00,,,-99.99,1.0,HOBO +U30 +Weather +,2013-04-01 01:50:00,
2013-03-31 19:55:00,48.6,21.3,-100.00,ENE,67,11.2,14.1,33,0.00,,,-99.99,1.0,HOBO +U30 +Weather +,2013-04-01 01:55:00,
2013-03-31 20:00:00,48.4,21.5,-100.00,ENE,63,9.6,14.1,34,0.00,,,-99.99,1.0,HOBO +U30 +Weather +,2013-04-01 02:00:00,
2013-03-31 20:05:00,48.2,21.4,-100.00,ENE,65,10.7,14.5,34,0.00,,,-99.99,1.0,HOBO +U30 +Weather +,2013-04-01 02:05:00,
2013-03-31 20:10:00,47.8,21.4,-100.00,ENE,63,7.8,11.9,34,0.00,,,-99.99,1.0,HOBO +U30 +Weather +,2013-04-01 02:10:00,
2013-03-31 20:15:00,47.4,21.5,-100.00,ENE,62,6.7,10.1,35,0.00,,,-99.99,1.0,HOBO +U30 +Weather +,2013-04-01 02:15:00,
2013-03-31 20:20:00,47.2,21.4,-100.00,ENE,66,7.8,9.6,35,0.00,,,-99.99,1.0,HOBO +U30 +Weather +,2013-04-01 02:20:00,
2013-03-31 20:25:00,47.1,21.4,-100.00,ENE,66,7.4,9.6,35,0.00,,,-99.99,1.0,HOBO +U30 +Weather +,2013-04-01 02:25:00,
2013-03-31 20:30:00,47.1,21.5,-100.00,ENE,69,6.3,8.5,35,0.00,,,-99.99,1.0,HOBO +U30 +Weather +,2013-04-01 02:30:00,
2013-03-31 20:35:00,47.3,21.5,-100.00,ENE,77,6.7,9.6,35,0.00,,,-99.99,1.0,HOBO +U30 +Weather +,2013-04-01 02:35:00,
2013-03-31 20:40:00,47.4,21.5,-100.00,ENE,76,7.4,11.2,35,0.00,,,-99.99,1.0,HOBO +U30 +Weather +,2013-04-01 02:40:00,
2013-03-31 20:45:00,47.1,21.5,-100.00,ENE,66,6.7,9.6,35,0.00,,,-99.99,1.0,HOBO +U30 +Weather +,2013-04-01 02:45:00,
2013-03-31 20:50:00,46.4,21.4,-100.00,NE,55,6.3,8.9,36,0.00,,,-99.99,1.0,HOBO +U30 +Weather +,2013-04-01 02:50:00,
2013-03-31 20:55:00,45.9,21.3,-100.00,NE,38,5.1,7.4,37,0.00,,,-99.99,1.0,HOBO +U30 +Weather +,2013-04-01 02:55:00,
2013-03-31 21:00:00,45.4,21.3,-100.00,NE,34,4.5,7.4,38,0.00,,,-99.99,1.0,HOBO +U30 +Weather +,2013-04-01 03:00:00,
2013-03-31 21:05:00,45.6,21.5,-100.00,NNE,27,5.1,8.5,38,0.00,,,-99.99,1.0,HOBO +U30 +Weather +,2013-04-01 03:05:00,
2013-03-31 21:10:00,45.4,21.5,-100.00,NE,44,5.6,9.6,38,0.00,,,-99.99,1.0,HOBO +U30 +Weather +,2013-04-01 03:10:00,
2013-03-31 21:15:00,45.4,21.4,-100.00,NE,42,5.6,8.5,38,0.00,,,-99.99,1.0,HOBO +U30 +Weather +,2013-04-01 03:15:00,
2013-03-31 21:20:00,45.3,21.4,-100.00,NE,51,7.4,9.6,38,0.00,,,-99.99,1.0,HOBO +U30 +Weather +,2013-04-01 03:20:00,
2013-03-31 21:25:00,44.9,21.5,-100.00,NE,46,5.6,7.8,39,0.00,,,-99.99,1.0,HOBO +U30 +Weather +,2013-04-01 03:25:00,
2013-03-31 21:30:00,44.5,21.4,-100.00,NE,41,6.7,10.1,39,0.00,,,-99.99,1.0,HOBO +U30 +Weather +,2013-04-01 03:30:00,
2013-03-31 21:35:00,44.4,21.5,-100.00,NE,44,6.3,9.6,39,0.00,,,-99.99,1.0,HOBO +U30 +Weather +,2013-04-01 03:35:00,
2013-03-31 21:40:00,44.3,21.7,-100.00,NE,45,6.3,8.5,40,0.00,,,-99.99,1.0,HOBO +U30 +Weather +,2013-04-01 03:40:00,
2013-03-31 21:45:00,43.9,21.9,-100.00,NE,44,6.7,9.6,41,0.00,,,-99.99,1.0,HOBO +U30 +Weather +,2013-04-01 03:45:00,
2013-03-31 21:50:00,43.6,21.8,-100.00,NE,45,4.5,7.4,41,0.00,,,-99.99,1.0,HOBO +U30 +Weather +,2013-04-01 03:50:00,
2013-03-31 21:55:00,44.0,22.3,-100.00,ENE,69,4.5,11.9,41,0.00,,,-99.99,1.0,HOBO +U30 +Weather +,2013-04-01 03:55:00,
2013-03-31 22:00:00,43.5,22.2,-100.00,NNE,29,2.9,6.3,42,0.00,,,-99.99,1.0,HOBO +U30 +Weather +,2013-04-01 04:00:00,
2013-03-31 22:05:00,43.2,22.2,-100.00,NNE,22,2.2,5.6,43,0.00,,,-99.99,1.0,HOBO +U30 +Weather +,2013-04-01 04:05:00,
2013-03-31 22:10:00,43.2,22.3,-100.00,NNE,27,4.0,9.6,43,0.00,,,-99.99,1.0,HOBO +U30 +Weather +,2013-04-01 04:10:00,
2013-03-31 22:15:00,43.3,22.4,-100.00,NNE,18,2.9,8.9,43,0.00,,,-99.99,1.0,HOBO +U30 +Weather +,2013-04-01 04:15:00,
2013-03-31 22:20:00,42.8,22.4,-100.00,North,7,2.2,5.1,43,0.00,,,-99.99,1.0,HOBO +U30 +Weather +,2013-04-01 04:20:00,
2013-03-31 22:25:00,42.6,22.5,-100.00,NE,34,2.2,5.6,44,0.00,,,-99.99,1.0,HOBO +U30 +Weather +,2013-04-01 04:25:00,
2013-03-31 22:30:00,42.5,22.5,-100.00,North,1,2.2,5.1,44,0.00,,,-99.99,1.0,HOBO +U30 +Weather +,2013-04-01 04:30:00,
2013-03-31 22:35:00,42.6,22.6,-100.00,North,8,1.8,5.6,44,0.00,,,-99.99,1.0,HOBO +U30 +Weather +,2013-04-01 04:35:00,
2013-03-31 22:40:00,42.4,22.5,-100.00,NNE,15,0.0,2.2,44,0.00,,,-99.99,1.0,HOBO +U30 +Weather +,2013-04-01 04:40:00,
2013-03-31 22:45:00,42.3,22.7,-100.00,North,351,1.1,3.4,45,0.00,,,-99.99,1.0,HOBO +U30 +Weather +,2013-04-01 04:45:00,
2013-03-31 22:50:00,42.6,23.1,-100.00,NNW,348,4.5,7.4,45,0.00,,,-99.99,1.0,HOBO +U30 +Weather +,2013-04-01 04:50:00,
2013-03-31 22:55:00,42.6,23.1,-100.00,North,11,5.6,8.5,45,0.00,,,-99.99,1.0,HOBO +U30 +Weather +,2013-04-01 04:55:00,
2013-03-31 23:00:00,42.6,23.2,-100.00,NE,38,4.0,7.4,45,0.00,,,-99.99,1.0,HOBO +U30 +Weather +,2013-04-01 05:00:00,
2013-03-31 23:05:00,42.7,23.3,-100.00,NNE,27,5.6,9.6,45,0.00,,,-99.99,1.0,HOBO +U30 +Weather +,2013-04-01 05:05:00,
2013-03-31 23:10:00,42.9,23.3,-100.00,NNE,27,7.8,12.3,45,0.00,,,-99.99,1.0,HOBO +U30 +Weather +,2013-04-01 05:10:00,
2013-03-31 23:15:00,42.9,23.3,-100.00,NNE,29,5.1,7.4,45,0.00,,,-99.99,1.0,HOBO +U30 +Weather +,2013-04-01 05:15:00,
2013-03-31 23:20:00,42.2,23.1,-100.00,East,84,2.2,5.6,46,0.00,,,-99.99,1.0,HOBO +U30 +Weather +,2013-04-01 05:20:00,
2013-03-31 23:25:00,41.9,23.0,-100.00,South,191,0.7,4.0,46,0.00,,,-99.99,1.0,HOBO +U30 +Weather +,2013-04-01 05:25:00,
2013-03-31 23:30:00,42.1,23.2,-100.00,SSE,156,0.7,2.9,46,0.00,,,-99.99,1.0,HOBO +U30 +Weather +,2013-04-01 05:30:00,
2013-03-31 23:35:00,42.0,23.0,-100.00,NNW,343,1.1,2.9,46,0.00,,,-99.99,1.0,HOBO +U30 +Weather +,2013-04-01 05:35:00,
2013-03-31 23:40:00,42.1,23.3,-100.00,NNW,330,0.7,1.8,46,0.00,,,-99.99,1.0,HOBO +U30 +Weather +,2013-04-01 05:40:00,
2013-03-31 23:45:00,42.0,23.1,-100.00,WNW,303,1.8,4.5,46,0.00,,,-99.99,1.0,HOBO +U30 +Weather +,2013-04-01 05:45:00,
2013-03-31 23:50:00,42.2,23.3,-100.00,NNW,336,2.9,6.3,46,0.00,,,-99.99,1.0,HOBO +U30 +Weather +,2013-04-01 05:50:00,
2013-03-31 23:55:00,41.7,23.1,-100.00,North,352,0.0,2.9,47,0.00,,,-99.99,1.0,HOBO +U30 +Weather +,2013-04-01 05:55:00,